Regional Weather Roundup
Issued by NWS Kansas City/Pleasant Hill, MO

Home | Current Version | Previous Version | Graphics & Text | Print | Product List | Glossary Off
Versions: 1 2 3 4 5 6 7 8 9 10 11 12 13 14 15 16 17 18 19 20 21 22 23 24 25 26 27 28 29 30 31 32 33 34 35 36 37 38 39 40 41 42 43 44 45 46 47 48 49 50

232
ASUS43 KEAX 271010
RWREAX

WEATHER ROUNDUP FOR EASTERN KANSAS AND NORTHWEST MISSOURI
NATIONAL WEATHER SERVICE KANSAS CITY/PLEASANT HILL MO
500 AM CDT TUE JUN 27 2017

KSZ040-057-103>105-MOZ028-029-037-043-271100-
...KANSAS CITY METROPOLITAN AREA...

CITY           SKY/WX    TMP DP  RH WIND       PRES   REMARKS
K.C. INTL      CLEAR     56  54  93 SE6       30.12F
K.C. DOWNTOWN  CLEAR     60  58  92 CALM      30.12S
LEES SUMMIT    CLEAR     57  57 100 E3        30.13S
OLATHE - IXD   CLEAR     58  55  90 SE3       30.12F
OLATHE - OJC   CLEAR     57  56  96 E5        30.12F
LAWRENCE       CLEAR     54  54 100 CALM      30.12S FOG

$$

MOZ001>008-011>017-020>025-030>033-038>040-044>046-053-054-271100-
...NORTHERN AND CENTRAL MISSOURI...

CITY           SKY/WX    TMP DP  RH WIND       PRES   REMARKS
ST. JOSEPH     FOG       54  54 100 CALM      30.12F VSB 1/4
MOSBY          FOG       52  52 100 CALM      30.13F VSB 1/2
WARRENSBURG    FOG       52  52 100 CALM      30.13S VSB 3/4
WHITEMAN AFB   CLEAR     56  56 100 CALM      30.12F
CLINTON        PTCLDY    55  55 100 CALM      30.13S
SEDALIA        PTCLDY    56  56 100 CALM      30.14S FOG
WARSAW         NOT AVBL
CHILLICOTHE      N/A     53  53 100 CALM      30.15S
KIRKSVILLE     CLEAR     51  48  89 NE6       30.15S

$$

MOZ041-047>049-056>058-063>065-088>090-097-271100-
...EASTERN AND SOUTHERN MISSOURI...

CITY           SKY/WX    TMP DP  RH WIND       PRES   REMARKS
ST. LOUIS INTL CLEAR     59  54  83 CALM      30.14S
SPIRIT OF STL  CLEAR     52  52 100 CALM      30.14R
COLUMBIA       FOG       53  53 100 CALM      30.15S VSB 1/4
JEFFERSON CITY FOG       57  56  96 CALM      30.14F VSB 3/4
ROLLA          PTCLDY    53  53 100 CALM      30.14S
OSAGE BEACH    PTCLDY    55  55 100 CALM      30.15S
SPRINGFIELD    CLEAR     59  58  96 E5        30.12R
BRANSON        CLOUDY    59  59 100 CALM      30.14R
JOPLIN         CLOUDY    63  62  97 E3        30.10S
WEST PLAINS    PTCLDY    60  58  92 E3        30.16R

$$

IAZ060-094-KSZ022-034>040-054-083-096-NEZ052-066-093-271100-
...KANSAS...SOUTHEAST NEBRASKA AND IOWA...

CITY           SKY/WX    TMP DP  RH WIND       PRES   REMARKS
TOPEKA         CLEAR     58  58 100 E5        30.11F
MANHATTAN      MOCLDY    60  59  96 E5        30.09S
EMPORIA        CLOUDY    61  60  97 E9        30.09S
CHANUTE        MOCLDY    63  61  93 E5        30.10R
WICHITA        TSTM      65  64  97 SE10      30.05S
OMAHA          CLEAR     57  48  72 CALM      30.12F
LINCOLN        MOCLDY    53  51  93 NE3       30.12S
FALLS CITY     FOG       52  51  97 CALM      30.12S VSB 1/2
LAMONI         CLEAR     53  48  83 NE3       30.14F
DES MOINES     CLEAR     56  46  69 SE3       30.15S

$$





USA.gov is the U.S. government's official web portal to all federal, state and local government web resources and services.